TimeCDT,TemperatureF,Dew PointF,Humidity,Sea Level PressureIn,VisibilityMPH,Wind Direction,Wind SpeedMPH,Gust SpeedMPH,PrecipitationIn,Events,Conditions,WindDirDegrees,DateUTC
12:15 AM,77.0,50.0,39,29.95,10.0,SE,11.5,16.1,N/A,,Scattered Clouds,140,2011-10-07 05:15:00
12:35 AM,77.0,50.0,39,29.96,10.0,SE,13.8,19.6,N/A,,Scattered Clouds,140,2011-10-07 05:35:00
12:55 AM,77.0,51.8,41,29.96,10.0,SE,10.4,-,N/A,,Mostly Cloudy,140,2011-10-07 05:55:00
1:15 AM,77.0,51.8,41,29.96,10.0,SE,9.2,-,N/A,,Scattered Clouds,130,2011-10-07 06:15:00
1:35 AM,75.2,53.6,47,29.97,10.0,SE,11.5,-,N/A,,Clear,140,2011-10-07 06:35:00
1:55 AM,75.2,55.4,50,29.97,10.0,SSE,10.4,-,N/A,,Clear,150,2011-10-07 06:55:00
2:15 AM,73.4,55.4,53,29.98,10.0,SE,10.4,-,N/A,,Clear,140,2011-10-07 07:15:00
2:35 AM,73.4,57.2,57,29.98,10.0,SE,10.4,17.3,N/A,,Clear,140,2011-10-07 07:35:00
2:55 AM,73.4,59.0,61,29.98,10.0,SSE,9.2,17.3,N/A,,Clear,150,2011-10-07 07:55:00
3:15 AM,73.4,60.8,65,29.98,10.0,SSE,10.4,-,N/A,,Scattered Clouds,150,2011-10-07 08:15:00
3:55 AM,73.4,62.6,69,29.99,10.0,SSE,15.0,20.7,N/A,,Overcast,160,2011-10-07 08:55:00
4:15 AM,75.2,62.6,65,29.99,10.0,SSE,17.3,24.2,N/A,,Overcast,160,2011-10-07 09:15:00
4:35 AM,75.2,62.6,65,29.99,10.0,SSE,12.7,21.9,N/A,,Overcast,160,2011-10-07 09:35:00
4:55 AM,73.4,62.6,69,30.00,10.0,SSE,17.3,23.0,N/A,,Overcast,150,2011-10-07 09:55:00
5:15 AM,73.4,60.8,65,30.00,10.0,SSE,13.8,20.7,N/A,,Overcast,160,2011-10-07 10:15:00
5:35 AM,73.4,60.8,65,30.00,10.0,SSE,16.1,25.3,N/A,,Overcast,150,2011-10-07 10:35:00
6:15 AM,73.4,57.2,57,30.00,10.0,SSE,17.3,21.9,N/A,,Overcast,160,2011-10-07 11:15:00
6:35 AM,73.4,57.2,57,30.00,10.0,SE,13.8,-,N/A,,Overcast,140,2011-10-07 11:35:00
6:55 AM,73.4,57.2,57,30.01,10.0,SSE,19.6,-,N/A,,Overcast,150,2011-10-07 11:55:00
8:55 AM,73.4,60.8,65,30.05,10.0,SE,13.8,21.9,N/A,,Mostly Cloudy,140,2011-10-07 13:55:00
10:55 AM,77.0,64.4,65,30.07,10.0,SE,15.0,19.6,N/A,,Overcast,140,2011-10-07 15:55:00
2:55 PM,80.6,64.4,58,30.02,10.0,SSE,13.8,21.9,N/A,,Scattered Clouds,150,2011-10-07 19:55:00
3:55 PM,86.0,62.6,45,29.97,10.0,South,18.4,27.6,N/A,,Scattered Clouds,170,2011-10-07 20:55:00
4:55 PM,86.0,62.6,45,29.97,10.0,SE,13.8,27.6,N/A,,Scattered Clouds,140,2011-10-07 21:55:00
6:55 PM,84.2,60.8,45,29.96,10.0,SE,9.2,-,N/A,,Scattered Clouds,130,2011-10-07 23:55:00
8:55 PM,82.4,60.8,48,29.99,10.0,ESE,8.1,-,N/A,,Scattered Clouds,120,2011-10-08 01:55:00
9:55 PM,80.6,59.0,48,30.00,10.0,ESE,10.4,-,N/A,,Scattered Clouds,120,2011-10-08 02:55:00
10:15 PM,77.0,55.4,47,30.01,10.0,SE,8.1,-,N/A,,Scattered Clouds,140,2011-10-08 03:15:00
10:35 PM,78.8,53.6,42,30.01,10.0,SE,9.2,-,N/A,,Scattered Clouds,130,2011-10-08 03:35:00
10:55 PM,78.8,55.4,44,30.01,10.0,SE,12.7,19.6,N/A,,Scattered Clouds,130,2011-10-08 03:55:00
11:15 PM,78.8,55.4,44,30.01,10.0,SE,8.1,-,N/A,,Scattered Clouds,130,2011-10-08 04:15:00
11:35 PM,78.8,55.4,44,30.01,10.0,SE,11.5,17.3,N/A,,Scattered Clouds,140,2011-10-08 04:35:00
11:55 PM,77.0,55.4,47,30.01,10.0,SE,9.2,16.1,N/A,,Scattered Clouds,140,2011-10-08 04:55:00